Time,TemperatureF,DewpointF,PressureIn,WindDirection,WindDirectionDegrees,WindSpeedMPH,WindSpeedGustMPH,Humidity,HourlyPrecipIn,Conditions,Clouds,dailyrainin,SoftwareType,DateUTC
2013-04-26 00:03:00,40.0,34.0,-100.00,SSE,151,2.0,6.0,82,0.00,,,-99.99,,2013-04-26 04:03:00,
2013-04-26 00:12:00,40.0,34.0,-100.00,SSE,163,1.0,6.0,82,0.00,,,-99.99,,2013-04-26 04:12:00,
2013-04-26 00:23:00,40.0,34.0,-100.00,SSE,160,2.0,6.0,81,0.00,,,-99.99,,2013-04-26 04:23:00,
2013-04-26 00:32:00,40.0,34.0,-100.00,SSE,148,1.0,6.0,81,0.00,,,-99.99,,2013-04-26 04:32:00,
2013-04-26 00:43:00,40.0,34.0,-100.00,South,176,1.0,6.0,81,0.00,,,-99.99,,2013-04-26 04:43:00,
2013-04-26 00:53:00,40.0,34.0,-100.00,South,173,1.0,6.0,81,0.00,,,-99.99,,2013-04-26 04:53:00,
2013-04-26 01:02:00,40.0,34.0,-100.00,South,169,1.0,6.0,80,0.00,,,-99.99,,2013-04-26 05:02:00,
2013-04-26 01:13:00,40.0,34.0,-100.00,South,187,1.0,6.0,81,0.00,,,-99.99,,2013-04-26 05:13:00,
2013-04-26 01:22:00,41.0,34.0,-100.00,SSE,165,1.0,6.0,80,0.00,,,-99.99,,2013-04-26 05:22:00,
2013-04-26 01:32:00,40.0,34.0,-100.00,South,182,0.0,6.0,81,0.00,,,-99.99,,2013-04-26 05:32:00,
2013-04-26 01:42:00,40.0,34.0,-100.00,South,170,1.0,6.0,81,0.00,,,-99.99,,2013-04-26 05:42:00,
2013-04-26 01:52:00,40.0,34.0,-100.00,SSE,158,0.0,6.0,80,0.00,,,-99.99,,2013-04-26 05:52:00,
2013-04-26 02:02:00,40.0,34.0,-100.00,SSW,193,1.0,6.0,81,0.00,,,-99.99,,2013-04-26 06:02:00,
2013-04-26 02:12:00,41.0,34.0,-100.00,SW,227,1.0,6.0,78,0.00,,,-99.99,,2013-04-26 06:12:00,
2013-04-26 02:22:00,41.0,34.0,-100.00,SSW,210,1.0,6.0,77,0.00,,,-99.99,,2013-04-26 06:22:00,
2013-04-26 02:32:00,43.0,36.0,-100.00,SSW,194,1.0,6.0,78,0.00,,,-99.99,,2013-04-26 06:32:00,
2013-04-26 02:42:00,40.0,34.0,-100.00,South,176,0.0,6.0,80,0.00,,,-99.99,,2013-04-26 06:42:00,
2013-04-26 02:52:00,39.0,32.0,-100.00,SSW,194,1.0,6.0,80,0.00,,,-99.99,,2013-04-26 06:52:00,
2013-04-26 03:01:00,40.0,34.0,-100.00,SSW,192,1.0,6.0,80,0.00,,,-99.99,,2013-04-26 07:01:00,
2013-04-26 03:11:00,40.0,34.0,-100.00,SSW,197,0.0,6.0,80,0.00,,,-99.99,,2013-04-26 07:11:00,
2013-04-26 03:22:00,38.0,32.0,-100.00,SSE,159,1.0,6.0,81,0.00,,,-99.99,,2013-04-26 07:22:00,
2013-04-26 03:32:00,37.0,32.0,-100.00,South,186,0.0,6.0,85,0.00,,,-99.99,,2013-04-26 07:32:00,
2013-04-26 03:42:00,38.0,32.0,-100.00,SSE,163,1.0,6.0,86,0.00,,,-99.99,,2013-04-26 07:42:00,
2013-04-26 03:52:00,36.0,32.0,-100.00,SSE,162,0.0,6.0,88,0.00,,,-99.99,,2013-04-26 07:52:00,
2013-04-26 04:03:00,36.0,32.0,-100.00,South,176,0.0,6.0,88,0.00,,,-99.99,,2013-04-26 08:03:00,
2013-04-26 04:11:00,36.0,32.0,-100.00,SE,128,0.0,6.0,88,0.00,,,-99.99,,2013-04-26 08:11:00,
2013-04-26 04:22:00,36.0,32.0,-100.00,North,360,0.0,6.0,89,0.00,,,-99.99,,2013-04-26 08:22:00,
2013-04-26 04:32:00,36.0,32.0,-100.00,ENE,64,0.0,6.0,89,0.00,,,-99.99,,2013-04-26 08:32:00,
2013-04-26 04:42:00,36.0,32.0,-100.00,SE,135,0.0,6.0,89,0.00,,,-99.99,,2013-04-26 08:42:00,
2013-04-26 04:52:00,35.0,32.0,-100.00,SE,135,0.0,6.0,89,0.00,,,-99.99,,2013-04-26 08:52:00,
2013-04-26 05:02:00,35.0,32.0,-100.00,NE,45,0.0,6.0,90,0.00,,,-99.99,,2013-04-26 09:02:00,
2013-04-26 05:12:00,34.0,32.0,-100.00,ENE,66,0.0,6.0,90,0.00,,,-99.99,,2013-04-26 09:12:00,
2013-04-26 05:22:00,35.0,32.0,-100.00,ENE,60,0.0,6.0,90,0.00,,,-99.99,,2013-04-26 09:22:00,
2013-04-26 05:33:00,34.0,32.0,-100.00,ENE,60,0.0,6.0,90,0.00,,,-99.99,,2013-04-26 09:33:00,
2013-04-26 05:43:00,34.0,32.0,-100.00,ESE,108,0.0,6.0,90,0.00,,,-99.99,,2013-04-26 09:43:00,
2013-04-26 05:53:00,34.0,32.0,-100.00,ENE,62,0.0,6.0,90,0.00,,,-99.99,,2013-04-26 09:53:00,
2013-04-26 06:03:00,36.0,32.0,-100.00,ENE,70,0.0,6.0,91,0.00,,,-99.99,,2013-04-26 10:03:00,
2013-04-26 06:12:00,34.0,32.0,-100.00,ENE,63,0.0,6.0,90,0.00,,,-99.99,,2013-04-26 10:12:00,
2013-04-26 06:23:00,34.0,32.0,-100.00,ESE,110,0.0,6.0,90,0.00,,,-99.99,,2013-04-26 10:23:00,
2013-04-26 06:33:00,33.0,32.0,-100.00,NE,52,1.0,6.0,90,0.00,,,-99.99,,2013-04-26 10:33:00,
2013-04-26 06:42:00,35.0,32.0,-100.00,NE,35,0.0,6.0,90,0.00,,,-99.99,,2013-04-26 10:42:00,
2013-04-26 06:52:00,35.0,32.0,-100.00,East,90,1.0,6.0,93,0.00,,,-99.99,,2013-04-26 10:52:00,
2013-04-26 07:02:00,35.0,32.0,-100.00,ESE,122,0.0,6.0,93,0.00,,,-99.99,,2013-04-26 11:02:00,
2013-04-26 07:11:00,34.0,32.0,-100.00,SE,124,0.0,6.0,91,1.14,,,-99.99,,2013-04-26 11:11:00,
2013-04-26 07:22:00,36.0,34.0,-100.00,ESE,114,0.0,6.0,93,0.00,,,-99.99,,2013-04-26 11:22:00,
2013-04-26 07:32:00,37.0,34.0,-100.00,SE,135,1.0,6.0,91,0.00,,,-99.99,,2013-04-26 11:32:00,
2013-04-26 07:42:00,37.0,34.0,-100.00,East,94,1.0,6.0,90,0.00,,,-99.99,,2013-04-26 11:42:00,
2013-04-26 07:52:00,36.0,32.0,-100.00,SE,128,1.0,6.0,89,0.00,,,-99.99,,2013-04-26 11:52:00,
2013-04-26 08:02:00,39.0,36.0,-100.00,ESE,115,0.0,6.0,90,0.00,,,-99.99,,2013-04-26 12:02:00,
2013-04-26 08:11:00,38.0,34.0,-100.00,SSE,149,1.0,6.0,88,0.00,,,-99.99,,2013-04-26 12:11:00,
2013-04-26 08:22:00,38.0,34.0,-100.00,SSE,156,1.0,6.0,88,0.00,,,-99.99,,2013-04-26 12:22:00,
2013-04-26 08:32:00,38.0,34.0,-100.00,SE,138,1.0,6.0,86,0.00,,,-99.99,,2013-04-26 12:32:00,
2013-04-26 08:42:00,39.0,34.0,-100.00,SE,139,1.0,6.0,85,0.00,,,-99.99,,2013-04-26 12:42:00,
2013-04-26 08:52:00,40.0,34.0,-100.00,ESE,107,2.0,6.0,82,0.00,,,-99.99,,2013-04-26 12:52:00,
2013-04-26 09:01:00,41.0,34.0,-100.00,SE,144,2.0,6.0,80,0.00,,,-99.99,,2013-04-26 13:01:00,
2013-04-26 09:11:00,41.0,34.0,-100.00,SE,128,2.0,6.0,78,0.00,,,-99.99,,2013-04-26 13:11:00,
2013-04-26 09:22:00,42.0,34.0,-100.00,SE,142,2.0,6.0,75,0.00,,,-99.99,,2013-04-26 13:22:00,
2013-04-26 09:32:00,43.0,34.0,-100.00,SE,139,2.0,6.0,73,0.00,,,-99.99,,2013-04-26 13:32:00,
2013-04-26 09:42:00,45.0,36.0,-100.00,ENE,64,2.0,6.0,72,0.00,,,-99.99,,2013-04-26 13:42:00,
2013-04-26 09:52:00,46.0,36.0,-100.00,SE,139,2.0,6.0,69,0.00,,,-99.99,,2013-04-26 13:52:00,
2013-04-26 10:01:00,46.0,34.0,-100.00,SSE,158,2.0,6.0,67,0.00,,,-99.99,,2013-04-26 14:01:00,
2013-04-26 10:11:00,47.0,32.0,-100.00,SE,138,2.0,6.0,60,0.00,,,-99.99,,2013-04-26 14:11:00,
2013-04-26 10:21:00,48.0,32.0,-100.00,ESE,108,2.0,6.0,56,0.00,,,-99.99,,2013-04-26 14:21:00,
2013-04-26 10:32:00,48.0,32.0,-100.00,SSE,148,2.0,6.0,54,0.00,,,-99.99,,2013-04-26 14:32:00,
2013-04-26 10:42:00,50.0,32.0,-100.00,NE,39,1.0,6.0,49,0.00,,,-99.99,,2013-04-26 14:42:00,
2013-04-26 10:52:00,50.0,32.0,-100.00,ESE,115,1.0,6.0,50,0.00,,,-99.99,,2013-04-26 14:52:00,
2013-04-26 11:01:00,50.0,30.0,-100.00,SSW,210,1.0,6.0,44,0.00,,,-99.99,,2013-04-26 15:01:00,
2013-04-26 11:12:00,51.0,32.0,-100.00,NE,40,1.0,6.0,45,0.00,,,-99.99,,2013-04-26 15:12:00,
2013-04-26 11:22:00,51.0,32.0,-100.00,SSE,166,2.0,6.0,46,0.00,,,-99.99,,2013-04-26 15:22:00,
2013-04-26 11:33:00,52.0,32.0,-100.00,WSW,251,1.0,6.0,44,0.00,,,-99.99,,2013-04-26 15:33:00,
2013-04-26 11:43:00,51.0,28.0,-100.00,South,169,2.0,6.0,41,0.00,,,-99.99,,2013-04-26 15:43:00,
2013-04-26 11:53:00,52.0,30.0,-100.00,South,170,1.0,6.0,40,0.00,,,-99.99,,2013-04-26 15:53:00,
2013-04-26 12:03:00,52.0,32.0,-100.00,ESE,105,3.0,6.0,44,0.00,,,-99.99,,2013-04-26 16:03:00,
2013-04-26 12:13:00,53.0,28.0,-100.00,SE,128,3.0,6.0,37,0.00,,,-99.99,,2013-04-26 16:13:00,
2013-04-26 12:23:00,51.0,28.0,-100.00,SSW,196,3.0,6.0,41,0.00,,,-99.99,,2013-04-26 16:23:00,
2013-04-26 12:33:00,51.0,28.0,-100.00,SE,135,1.0,6.0,40,0.00,,,-99.99,,2013-04-26 16:33:00,
2013-04-26 12:42:00,52.0,30.0,-100.00,ESE,118,2.0,6.0,41,0.00,,,-99.99,,2013-04-26 16:42:00,
2013-04-26 12:52:00,54.0,28.0,-100.00,NW,323,1.0,6.0,37,0.00,,,-99.99,,2013-04-26 16:52:00,
2013-04-26 13:02:00,54.0,32.0,-100.00,SE,144,2.0,6.0,41,0.00,,,-99.99,,2013-04-26 17:02:00,
2013-04-26 13:12:00,54.0,28.0,-100.00,East,87,4.0,6.0,36,0.00,,,-99.99,,2013-04-26 17:12:00,
2013-04-26 13:22:00,55.0,28.0,-100.00,SSE,168,2.0,6.0,36,0.00,,,-99.99,,2013-04-26 17:22:00,
2013-04-26 13:32:00,53.0,28.0,-100.00,SW,221,2.0,6.0,37,0.00,,,-99.99,,2013-04-26 17:32:00,
2013-04-26 13:42:00,54.0,27.0,-100.00,NE,43,2.0,6.0,33,0.00,,,-99.99,,2013-04-26 17:42:00,
2013-04-26 13:52:00,54.0,27.0,-100.00,SE,132,2.0,6.0,33,0.00,,,-99.99,,2013-04-26 17:52:00,
2013-04-26 14:02:00,55.0,27.0,-100.00,SE,125,2.0,6.0,32,0.00,,,-99.99,,2013-04-26 18:02:00,
2013-04-26 14:12:00,55.0,27.0,-100.00,East,101,2.0,6.0,33,0.00,,,-99.99,,2013-04-26 18:12:00,
2013-04-26 14:22:00,53.0,27.0,-100.00,South,186,3.0,6.0,33,0.00,,,-99.99,,2013-04-26 18:22:00,
2013-04-26 14:33:00,53.0,32.0,-100.00,NW,306,6.0,12.0,45,0.00,,,-99.99,,2013-04-26 18:33:00,
2013-04-26 14:42:00,53.0,32.0,-100.00,West,273,6.0,12.0,47,0.00,,,-99.99,,2013-04-26 18:42:00,
2013-04-26 14:52:00,53.0,32.0,-100.00,NNW,327,7.0,12.0,45,0.00,,,-99.99,,2013-04-26 18:52:00,
2013-04-26 15:01:00,53.0,32.0,-100.00,NW,312,8.0,12.0,42,0.00,,,-99.99,,2013-04-26 19:01:00,
2013-04-26 15:12:00,52.0,32.0,-100.00,NW,313,8.0,12.0,45,0.00,,,-99.99,,2013-04-26 19:12:00,
2013-04-26 15:22:00,53.0,32.0,-100.00,NW,321,7.0,12.0,44,0.00,,,-99.99,,2013-04-26 19:22:00,
2013-04-26 15:32:00,53.0,30.0,-100.00,NW,309,9.0,12.0,41,0.00,,,-99.99,,2013-04-26 19:32:00,
2013-04-26 15:42:00,53.0,30.0,-100.00,NW,326,8.0,12.0,41,0.00,,,-99.99,,2013-04-26 19:42:00,
2013-04-26 15:52:00,53.0,32.0,-100.00,NW,309,8.0,12.0,44,0.00,,,-99.99,,2013-04-26 19:52:00,
2013-04-26 16:02:00,53.0,30.0,-100.00,NW,321,7.0,12.0,42,0.00,,,-99.99,,2013-04-26 20:02:00,
2013-04-26 16:11:00,53.0,32.0,-100.00,WNW,283,7.0,12.0,42,0.00,,,-99.99,,2013-04-26 20:11:00,
2013-04-26 16:22:00,53.0,32.0,-100.00,WNW,283,7.0,12.0,47,0.00,,,-99.99,,2013-04-26 20:22:00,
2013-04-26 16:32:00,52.0,30.0,-100.00,West,271,8.0,12.0,41,0.00,,,-99.99,,2013-04-26 20:32:00,
2013-04-26 16:42:00,52.0,32.0,-100.00,WNW,296,6.0,12.0,46,0.00,,,-99.99,,2013-04-26 20:42:00,
2013-04-26 16:52:00,51.0,30.0,-100.00,West,276,7.0,12.0,42,0.00,,,-99.99,,2013-04-26 20:52:00,
2013-04-26 17:02:00,54.0,32.0,-100.00,NW,326,6.0,12.0,42,0.00,,,-99.99,,2013-04-26 21:02:00,
2013-04-26 17:11:00,53.0,30.0,-100.00,NW,316,5.0,12.0,42,0.00,,,-99.99,,2013-04-26 21:11:00,
2013-04-26 17:22:00,52.0,30.0,-100.00,NW,316,6.0,12.0,41,0.00,,,-99.99,,2013-04-26 21:22:00,
2013-04-26 17:33:00,52.0,32.0,-100.00,WNW,297,7.0,12.0,44,0.00,,,-99.99,,2013-04-26 21:33:00,
2013-04-26 17:42:00,51.0,28.0,-100.00,WNW,296,7.0,12.0,41,0.00,,,-99.99,,2013-04-26 21:42:00,
2013-04-26 17:53:00,52.0,30.0,-100.00,NNW,334,7.0,12.0,40,0.00,,,-99.99,,2013-04-26 21:53:00,
2013-04-26 18:03:00,52.0,30.0,-100.00,NW,324,7.0,12.0,42,0.00,,,-99.99,,2013-04-26 22:03:00,
2013-04-26 18:13:00,51.0,28.0,-100.00,WNW,288,7.0,12.0,41,0.00,,,-99.99,,2013-04-26 22:13:00,
2013-04-26 18:23:00,51.0,30.0,-100.00,NW,306,6.0,12.0,42,0.00,,,-99.99,,2013-04-26 22:23:00,
2013-04-26 18:33:00,52.0,30.0,-100.00,West,278,5.0,12.0,42,0.00,,,-99.99,,2013-04-26 22:33:00,
2013-04-26 18:42:00,50.0,28.0,-100.00,NW,320,7.0,12.0,40,0.00,,,-99.99,,2013-04-26 22:42:00,
2013-04-26 18:52:00,51.0,30.0,-100.00,NW,316,6.0,12.0,42,0.00,,,-99.99,,2013-04-26 22:52:00,
2013-04-26 19:02:00,50.0,28.0,-100.00,WNW,286,6.0,12.0,42,0.00,,,-99.99,,2013-04-26 23:02:00,
2013-04-26 19:12:00,50.0,30.0,-100.00,NW,313,6.0,12.0,44,0.00,,,-99.99,,2013-04-26 23:12:00,
2013-04-26 19:21:00,51.0,28.0,-100.00,NNW,334,4.0,12.0,41,0.00,,,-99.99,,2013-04-26 23:21:00,
2013-04-26 19:32:00,50.0,28.0,-100.00,NW,317,4.0,12.0,42,0.00,,,-99.99,,2013-04-26 23:32:00,
2013-04-26 19:42:00,50.0,28.0,-100.00,NNW,338,4.0,12.0,40,0.00,,,-99.99,,2013-04-26 23:42:00,
2013-04-26 19:52:00,50.0,28.0,-100.00,NNW,338,4.0,12.0,40,0.00,,,-99.99,,2013-04-26 23:52:00,
2013-04-26 20:01:00,50.0,28.0,-100.00,NW,313,4.0,12.0,41,0.00,,,-99.99,,2013-04-27 00:01:00,
2013-04-26 20:11:00,49.0,27.0,-100.00,NW,326,4.0,12.0,41,0.00,,,-99.99,,2013-04-27 00:11:00,
2013-04-26 20:21:00,49.0,28.0,-100.00,NW,316,4.0,4.0,44,0.00,,,-99.99,,2013-04-27 00:21:00,
2013-04-26 20:32:00,48.0,27.0,-100.00,NNW,338,3.0,4.0,42,0.00,,,-99.99,,2013-04-27 00:32:00,
2013-04-26 20:42:00,50.0,30.0,-100.00,North,7,2.0,4.0,46,0.00,,,-99.99,,2013-04-27 00:42:00,
2013-04-26 20:51:00,50.0,30.0,-100.00,NNE,12,1.0,4.0,46,0.00,,,-99.99,,2013-04-27 00:51:00,
2013-04-26 21:01:00,49.0,30.0,-100.00,North,11,2.0,4.0,46,0.00,,,-99.99,,2013-04-27 01:01:00,
2013-04-26 21:12:00,48.0,28.0,-100.00,North,8,2.0,4.0,46,0.00,,,-99.99,,2013-04-27 01:12:00,
2013-04-26 21:21:00,48.0,30.0,-100.00,NNE,25,1.0,4.0,47,0.00,,,-99.99,,2013-04-27 01:21:00,
2013-04-26 21:32:00,49.0,32.0,-100.00,NNE,29,2.0,4.0,49,0.00,,,-99.99,,2013-04-27 01:32:00,
2013-04-26 21:42:00,49.0,32.0,-100.00,NNE,21,2.0,4.0,50,0.00,,,-99.99,,2013-04-27 01:42:00,
2013-04-26 21:52:00,48.0,30.0,-100.00,NNE,16,2.0,4.0,50,0.00,,,-99.99,,2013-04-27 01:52:00,
2013-04-26 22:02:00,48.0,30.0,-100.00,NNE,16,2.0,4.0,50,0.00,,,-99.99,,2013-04-27 02:02:00,
2013-04-26 22:11:00,47.0,28.0,-100.00,NNE,31,2.0,4.0,47,0.00,,,-99.99,,2013-04-27 02:11:00,
2013-04-26 22:22:00,48.0,30.0,-100.00,NNE,32,2.0,4.0,49,0.00,,,-99.99,,2013-04-27 02:22:00,
2013-04-26 22:32:00,47.0,28.0,-100.00,North,1,1.0,4.0,47,0.00,,,-99.99,,2013-04-27 02:32:00,
2013-04-26 22:42:00,48.0,30.0,-100.00,NE,53,0.0,4.0,47,0.00,,,-99.99,,2013-04-27 02:42:00,
2013-04-26 22:52:00,45.0,27.0,-100.00,NNE,12,0.0,4.0,46,0.00,,,-99.99,,2013-04-27 02:52:00,
2013-04-26 23:02:00,47.0,30.0,-100.00,North,2,0.0,4.0,50,0.00,,,-99.99,,2013-04-27 03:02:00,
2013-04-26 23:11:00,47.0,32.0,-100.00,NNE,33,0.0,4.0,54,0.00,,,-99.99,,2013-04-27 03:11:00,
2013-04-26 23:22:00,44.0,30.0,-100.00,NNE,32,1.0,4.0,58,0.00,,,-99.99,,2013-04-27 03:22:00,
2013-04-26 23:33:00,45.0,32.0,-100.00,NE,38,1.0,4.0,60,0.00,,,-99.99,,2013-04-27 03:33:00,
2013-04-26 23:43:00,44.0,32.0,-100.00,NE,36,1.0,4.0,66,0.00,,,-99.99,,2013-04-27 03:43:00,
2013-04-26 23:53:00,44.0,34.0,-100.00,NNE,14,0.0,4.0,67,0.00,,,-99.99,,2013-04-27 03:53:00,